Погода в Новогеоргиевке

Россия / Амурская область     51°51′02″N   127°06′29″E
темп.,
°C
ветер,
м/с
пор.,
м/с
влажн.,
%
обл.,
%
осадки,
мм/ч
давл.,
гПа
погр.,
м
6 марта, сб
сб600:00−24зсз36920 0.0 1034130
03:00−25зсз23930 0.0 103434
06:00−25з22910 0.0 103420
09:00−21з24820 0.0 1033201
12:00−15зсз24690 0.0 1031775
15:00−12зсз246631 0.0 10291167
18:00−16св118363 0.0 102820
21:00−18юв239348 0.0 102724
7 марта, вс
вс700:00−18ююв2293100 0.0 102640
03:00−17юв2494100 0.0 102485
06:00−17вюв1298100 0.1 102336
09:00−16всв1294100 0.4 1024191
12:00−13с2386100 0.1 1024485
15:00−11ссз2384100 0.2 1024612
18:00−14ссз119199 0.0 102520
21:00−18ю119349 0.0 102720
8 марта, пн
пн800:00−18ю23943 0.0 102621
03:00−18ю23952 0.0 102555
06:00−17ю49930 0.0 1023191
09:00−12ююз5118133 0.0 1020404
12:00−4юз5107540 0.0 1017613
15:00−3ююз587859 0.0 1013641
18:00−5ююз41087100 0.0 1010434
21:00−4юз41196100 0.3 1009557
9 марта, вт
вт900:00−3зсз51186100 1.1 1007673
03:00−9ссз3894100 1.1 1008230
06:00−12ссз389582 0.0 1010242
09:00−11ссз6148391 0.0 1013550
12:00−5сз7137119 0.0 10161148
15:00−4сз8137017 0.0 10181470
18:00−6сз6137337 0.0 1020986
21:00−10сз4128419 0.0 1023328
10 марта, ср
ср1000:00−13зсз23900 0.0 102458
03:00−14з22880 0.0 102420
06:00−14ю23844 0.0 102423
09:00−9ю497950 0.0 1022326
12:00−4ююз51167100 0.0 1019740
15:00−2ююз61169100 0.0 1015954
18:00−5ююз4993100 0.3 1014599
21:00−5зюз389494 0.5 1015255